Regional Weather Roundup
Issued by NWS

Home | Current Version | Previous Version | Graphics & Text | Print | Product List | Glossary Off
Versions: 1 2 3 4 5 6 7 8 9 10 11 12 13 14 15 16 17 18 19 20 21 22 23 24 25 26 27 28 29 30 31 32 33 34 35 36 37 38 39 40 41 42 43 44 45 46 47 48 49 50

000
ASUS43 KTOP 061708
RWRKS

WEATHER ROUNDUP FOR KANSAS
NATIONAL WEATHER SERVICE GOODLAND KS
1100 AM CST TUE DEC 06 2016

NOTE:  "FAIR" INDICATES FEW OR NO CLOUDS BELOW 12,000 FEET WITH NO
SIGNIFICANT WEATHER AND/OR OBSTRUCTIONS TO VISIBILITY.

KSZ001>006-013>018-027>032-041>047-061800-
NORTHWEST KANSAS

CITY           SKY/WX    TMP DP  RH WIND       PRES   REMARKS
GOODLAND       SUNNY     27   3  35 W6        30.06S
HAYS           SUNNY     31  12  45 NW12      30.13R WCI  22
HILL CITY      SUNNY     32   7  35 N12       30.12S WCI  23
RUSSELL        SUNNY     31  13  47 NW15      30.12R WCI  20
$$

KSZ061>065-074>080-084>089-061800-
SOUTHWEST KANSAS

CITY           SKY/WX    TMP DP  RH WIND       PRES   REMARKS
DODGE CITY     SUNNY     31   8  38 N14       30.13R WCI  21
ELKHART          N/A    N/A N/A N/A MISG        N/A
GARDEN CITY    SUNNY     30   5  34 N15       30.11S WCI  19
GREAT BEND     SUNNY     31  16  54 N14       30.13R WCI  21
LIBERAL        SUNNY     30   9  40 N13       30.14S WCI  20
PRATT          CLOUDY    29  13  52 N12       30.13S WCI  19
$$

KSZ066>073-081>083-090>101-061800-
SOUTHEAST KANSAS

CITY           SKY/WX    TMP DP  RH WIND       PRES   REMARKS
CHANUTE        SUNNY     39  20  46 N20G25    30.10R WCI  29
COFFEYVILLE    CLOUDY    38  23  55 N17G25    30.11R WCI  28
HUTCHINSON     SUNNY     34  18  52 N9        30.13R
MEDICINE LODGE   N/A     34  16  47 N16       30.14R WCI  24
NEWTON         SUNNY     33  18  53 N14G22    30.12R WCI  23
PARSONS        SUNNY     39  22  50 N18       30.11R WCI  30
WICHITA INTL   MOSUNNY   36  19  50 N18       30.12R WCI  26
WICHITA JABRA  SUNNY     35  19  52 N16       30.11R WCI  25
WICHITA MCCONL SUNNY     35  18  49 N14       30.12R WCI  26
WINFIELD       SUNNY     38  21  50 N16G25    30.12S WCI  29
$$

KSZ007>012-019>026-033>040-048>060-102>105-061800-
NORTHEAST KANSAS

CITY           SKY/WX    TMP DP  RH WIND       PRES   REMARKS
CONCORDIA      SUNNY     32  19  58 W10       30.11R WCI  24
EMPORIA        SUNNY     36  16  44 N12       30.11R WCI  28
LAWRENCE       SUNNY     35  16  45 NW14      30.09R WCI  26
MANHATTAN      SUNNY     35  12  38 N12G22    30.12R WCI  27
MARYSVILLE     SUNNY     32  12  43 NW18G26   30.09S WCI  20
OLATHE IND     SUNNY     35  15  44 NW20G25   30.07R WCI  24
OLATHE EXE     SUNNY     35  13  40 N16       30.06R WCI  25
SALINA         SUNNY     35  18  49 NW12      30.13S WCI  27
TOPEKA BILLARD SUNNY     35  15  44 NW17      30.10R WCI  25
TOPEKA FORBES  SUNNY     35  14  42 NW21G26   30.09R WCI  24
$$




USA.gov is the U.S. government's official web portal to all federal, state and local government web resources and services.